| time (UTC) | temp F | wind direction | speed MPH | gust MPH | rain 1hr in | rain 24hr in | rain mn in | humidity % | barometer mb |
| 20260507191529 | 67 | 24 | 4.0 | 8.0 | 0.00 | 0.00 | 0.00 | 40 | 1019.5 |
| 20260507190034 | 67 | 4 | 3.0 | 9.0 | 0.00 | 0.00 | 0.00 | 42 | 1019.6 |
| 20260507184535 | 65 | 359 | 2.0 | 7.0 | 0.00 | 0.00 | 0.00 | 46 | 1020.0 |
| 20260507173034 | 63 | 349 | 4.0 | 10.0 | 0.00 | 0.00 | 0.00 | 55 | 1020.4 |
| 20260507164644 | 62 | 338 | 4.0 | 9.0 | 0.00 | 0.00 | 0.00 | 60 | 1020.4 |
| 20260507163032 | 62 | 276 | 3.0 | 7.0 | 0.00 | 0.00 | 0.00 | 61 | 1020.4 |
| 20260507161532 | 61 | 271 | 2.0 | 7.0 | 0.00 | 0.00 | 0.00 | 62 | 1020.7 |
| 20260507160033 | 60 | 258 | 3.0 | 7.0 | 0.00 | 0.00 | 0.00 | 64 | 1020.9 |
| 20260507154531 | 59 | 250 | 4.0 | 8.0 | 0.00 | 0.00 | 0.00 | 65 | 1021.1 |
| 20260507153107 | 59 | 241 | 3.0 | 7.0 | 0.00 | 0.00 | 0.00 | 69 | 1021.1 |
| 20260507151531 | 57 | 311 | 1.0 | 5.0 | 0.00 | 0.00 | 0.00 | 73 | 1021.3 |
| 20260507150041 | 56 | 292 | 2.0 | 4.0 | 0.00 | 0.00 | 0.00 | 76 | 1021.2 |
| 20260507144534 | 56 | 326 | 1.0 | 4.0 | 0.00 | 0.00 | 0.00 | 81 | 1021.3 |
| 20260507143036 | 55 | 326 | 0.0 | 3.0 | 0.00 | 0.00 | 0.00 | 89 | 1021.2 |
| 20260507141530 | 52 | 173 | 0.0 | 4.0 | 0.00 | 0.00 | 0.00 | 92 | 1021.1 |
| 20260507140110 | 50 | 220 | 0.0 | 2.0 | 0.00 | 0.00 | 0.00 | 92 | 1021.0 |
| 20260507134538 | 46 | 244 | 0.0 | 2.0 | 0.00 | 0.00 | 0.00 | 92 | 1020.9 |
| 20260507131530 | 44 | 241 | 0.0 | 3.0 | 0.00 | 0.00 | 0.00 | 92 | 1020.9 |
| 20260507130031 | 44 | 216 | 0.0 | 0.0 | 0.00 | 0.00 | 0.00 | 92 | 1020.7 |
| 20260507123030 | 45 | 148 | 0.0 | 2.0 | 0.00 | 0.00 | 0.00 | 91 | 1020.6 |
| 20260507121535 | 45 | 202 | 0.0 | 2.0 | 0.00 | 0.00 | 0.00 | 90 | 1020.6 |
| 20260507120035 | 45 | 214 | 0.0 | 0.0 | 0.00 | 0.00 | 0.00 | 89 | 1020.5 |
| 20260507114534 | 46 | 130 | 0.0 | 0.0 | 0.00 | 0.00 | 0.00 | 89 | 1020.4 |
| 20260507113029 | 47 | 176 | 0.0 | 6.0 | 0.00 | 0.00 | 0.00 | 88 | 1020.3 |
| 20260507111531 | 47 | 161 | 0.0 | 2.0 | 0.00 | 0.00 | 0.00 | 87 | 1020.2 |
| 20260507110035 | 47 | 6 | 1.0 | 5.0 | 0.00 | 0.00 | 0.00 | 85 | 1020.1 |
| 20260507103030 | 49 | 66 | 1.0 | 4.0 | 0.00 | 0.00 | 0.00 | 82 | 1020.0 |
| 20260507101531 | 51 | 65 | 0.0 | 5.0 | 0.00 | 0.00 | 0.00 | 79 | 1019.9 |
| 20260507100045 | 52 | 54 | 0.0 | 5.0 | 0.00 | 0.00 | 0.00 | 79 | 1019.9 |
| 20260507094531 | 51 | 8 | 4.0 | 7.0 | 0.00 | 0.00 | 0.00 | 81 | 1019.9 |
| 20260507093107 | 51 | 7 | 3.0 | 8.0 | 0.00 | 0.00 | 0.00 | 82 | 1020.0 |
| 20260507091530 | 51 | 89 | 0.0 | 4.0 | 0.00 | 0.00 | 0.00 | 81 | 1020.0 |
| 20260507090031 | 52 | 33 | 1.0 | 4.0 | 0.00 | 0.00 | 0.00 | 80 | 1020.0 |
| 20260507084534 | 52 | 19 | 1.0 | 5.0 | 0.00 | 0.00 | 0.00 | 80 | 1020.0 |
| 20260507083037 | 53 | 21 | 4.0 | 8.0 | 0.00 | 0.00 | 0.00 | 80 | 1020.1 |
| 20260507080032 | 53 | 8 | 7.0 | 11.0 | 0.00 | 0.00 | 0.00 | 79 | 1020.1 |
| 20260507074535 | 54 | 2 | 7.0 | 12.0 | 0.00 | 0.00 | 0.00 | 78 | 1020.0 |
| 20260507073033 | 54 | 360 | 7.0 | 10.0 | 0.00 | 0.00 | 0.00 | 77 | 1020.0 |
| 20260507070029 | 54 | 322 | 0.0 | 2.0 | 0.00 | 0.00 | 0.00 | 75 | 1020.1 |
| 20260507064531 | 54 | 300 | 0.0 | 0.0 | 0.00 | 0.00 | 0.00 | 75 | 1020.3 |
| 20260507061608 | 55 | 15 | 2.0 | 5.0 | 0.00 | 0.00 | 0.00 | 71 | 1020.4 |
| 20260507054533 | 57 | 49 | 1.0 | 6.0 | 0.00 | 0.00 | 0.00 | 61 | 1020.6 |
| 20260507053030 | 59 | 179 | 3.0 | 7.0 | 0.00 | 0.00 | 0.00 | 58 | 1020.5 |
| 20260507051531 | 59 | 204 | 9.0 | 14.0 | 0.00 | 0.00 | 0.00 | 56 | 1020.4 |
| 20260507044534 | 59 | 208 | 4.0 | 10.0 | 0.00 | 0.00 | 0.00 | 54 | 1020.7 |
| 20260507043031 | 58 | 220 | 3.0 | 7.0 | 0.00 | 0.00 | 0.00 | 56 | 1020.7 |
| 20260507041531 | 60 | 44 | 0.0 | 2.0 | 0.00 | 0.00 | 0.00 | 53 | 1020.6 |
| 20260507040046 | 61 | 243 | 3.0 | 9.0 | 0.00 | 0.00 | 0.00 | 50 | 1020.5 |
| 20260507034643 | 62 | 203 | 2.0 | 7.0 | 0.00 | 0.00 | 0.00 | 49 | 1020.4 |
| 20260507033030 | 63 | 181 | 3.0 | 8.0 | 0.00 | 0.00 | 0.00 | 48 | 1020.2 |
| 20260507031531 | 63 | 170 | 4.0 | 8.0 | 0.00 | 0.00 | 0.00 | 48 | 1019.9 |
| 20260507030041 | 64 | 168 | 4.0 | 13.0 | 0.00 | 0.00 | 0.00 | 47 | 1019.8 |
| 20260507024534 | 64 | 149 | 4.0 | 11.0 | 0.00 | 0.00 | 0.00 | 47 | 1019.6 |
| 20260507023030 | 65 | 176 | 5.0 | 14.0 | 0.00 | 0.00 | 0.00 | 46 | 1019.6 |
| 20260507021533 | 65 | 183 | 6.0 | 14.0 | 0.00 | 0.00 | 0.00 | 45 | 1019.5 |
| 20260507020034 | 66 | 204 | 10.0 | 18.0 | 0.00 | 0.00 | 0.00 | 45 | 1019.4 |
| 20260507014552 | 66 | 190 | 6.0 | 16.0 | 0.00 | 0.00 | 0.00 | 47 | 1019.4 |
| 20260507013033 | 66 | 107 | 3.0 | 9.0 | 0.00 | 0.00 | 0.00 | 47 | 1019.3 |
| 20260507011535 | 66 | 98 | 3.0 | 10.0 | 0.00 | 0.00 | 0.00 | 47 | 1019.3 |
| 20260507010104 | 67 | 82 | 3.0 | 13.0 | 0.00 | 0.00 | 0.00 | 45 | 1019.2 |
| 20260507004531 | 68 | 138 | 4.0 | 9.0 | 0.00 | 0.00 | 0.00 | 43 | 1019.0 |
| 20260507003037 | 68 | 119 | 4.0 | 11.0 | 0.00 | 0.00 | 0.00 | 44 | 1018.9 |
| 20260507001536 | 68 | 160 | 3.0 | 10.0 | 0.00 | 0.00 | 0.00 | 44 | 1018.8 |
| 20260507000145 | 70 | 50 | 4.0 | 15.0 | 0.00 | 0.00 | 0.00 | 43 | 1018.7 |
| 20260506234531 | 71 | 144 | 3.0 | 10.0 | 0.00 | 0.00 | 0.00 | 42 | 1018.6 |
| 20260506233037 | 71 | 117 | 4.0 | 10.0 | 0.00 | 0.00 | 0.00 | 41 | 1018.6 |
| 20260506231535 | 72 | 123 | 3.0 | 10.0 | 0.00 | 0.00 | 0.00 | 41 | 1018.6 |
| 20260506230032 | 73 | 124 | 3.0 | 9.0 | 0.00 | 0.00 | 0.00 | 41 | 1018.8 |
| 20260506224531 | 73 | 243 | 4.0 | 11.0 | 0.00 | 0.00 | 0.00 | 42 | 1018.9 |
| 20260506223037 | 74 | 14 | 5.0 | 17.0 | 0.00 | 0.00 | 0.00 | 42 | 1019.0 |
| 20260506221606 | 74 | 137 | 4.0 | 10.0 | 0.00 | 0.00 | 0.00 | 41 | 1019.0 |
| 20260506220051 | 74 | 71 | 4.0 | 14.0 | 0.00 | 0.00 | 0.00 | 40 | 1018.8 |
| 20260506214532 | 76 | 162 | 3.0 | 12.0 | 0.00 | 0.00 | 0.00 | 40 | 1018.7 |
| 20260506213106 | 75 | 213 | 5.0 | 14.0 | 0.00 | 0.00 | 0.00 | 42 | 1018.7 |
| 20260506204530 | 73 | 52 | 5.0 | 14.0 | 0.00 | 0.00 | 0.00 | 46 | 1019.1 |
| 20260506203036 | 73 | 13 | 5.0 | 14.0 | 0.00 | 0.00 | 0.00 | 48 | 1019.0 |
| 20260506200028 | 73 | 10 | 6.0 | 13.0 | 0.00 | 0.00 | 0.00 | 49 | 1019.2 |
| 20260506194537 | 72 | 343 | 5.0 | 16.0 | 0.00 | 0.00 | 0.00 | 50 | 1019.2 |
| 20260506193035 | 71 | 349 | 5.0 | 16.0 | 0.00 | 0.00 | 0.00 | 51 | 1019.2 |